星链-32552 (STARLINK-32552)

导读 | 豆包AI

STARLINK-32552是美国SpaceX公司于2024年11月30日发射的星链第二代低轨卫星,隶属于星链全球卫星互联网星座。卫星采用增强型相控阵天线,标配激光星间链路,单星容量超100Gbps,具备自主轨道机动与避碰能力,可支撑百兆级下行宽带,助力实现全球高速低延迟互联网覆盖,尤其服务偏远区域与移动场景接入需求。

基本信息
目录编号:
62174
目录名称:
STARLINK-32552
国际标识:
2024-225M
轨道中心:
EARTH
卫星名称:
星链-32552
卫星全名:
星链-32552 (STARLINK-32552)
卫星状态:
在轨 (已飞行517 天)
发射日期:
2024-11-30 UTC
国别 :
美国 (US)
星等 :
--
轨道信息
数据来源 国际轨道数据
星历时间: 2026-04-30T19:11:19+0800
14小时前
查看轨道信息
半长轴: 6950.166km
偏心率: 0.0001364
轨道倾角: 70.008°
近地点辐角 277.107°
升交点赤经 33.792°
平近点角 82.993°
近地点: 571.08km
远地点: 572.978km
周期: 96.106分钟
每日圈数: 14.983389
详细信息
固有亮度:
5
最大亮度:
2.5
卫星平台:
Starlink V1.0
覆盖范围:
全球
运营商:
太空探索技术公司
运营商所在国:
美国
制造商(研发单位):
太空探索技术公司
制造商所在国:
美国
使用方式:
暂无
卫星简介
Starlink 计划是 SpaceX 推出的全球卫星互联网项目,通过发射低轨道卫星,为全球尤其是偏远地区提供高速、低延迟的互联网服务。自 2019 年起,Starlink 已部署数千颗卫星,旨在缩小全球数字鸿沟,推动互联网普及。该项目还为军事、航空等行业提供通信支持,带来广泛经济效益。
2D轨道图
3D轨道图
轨道高度分析图
轨道倾角分析图
轨道综合分析图
查看轨道综合分析图